This demonstration page uses our WeatherBlox Daily Observations layout. Learn more.

Left ArrowRight Arrow

38.20091, -84.87328

Hourly Observations for April 19, 2020

Temp ( °F °C ) Dew Point ( °F °C ) Humidity (%) Winds ( mph kmh ) Pressure ( in mb ) Visibility ( mi km ) Precip ( " mm )
12:53 am 00:53 Clear 41 5 33 0.6 73 73 SE 5 7 29.97 1015 10 16 0.00 0.00
1:53 am 01:53 Clear 40 4.4 33 0.6 77 77 SE 6 9 29.95 1014 10 16 0.00 0.00
2:53 am 02:53 Clear 40 4.4 32 0 73 73 S 6 9 29.94 1014 10 16 0.00 0.00
3:53 am 03:53 Clear 40 4.4 32 0 73 73 S 7 11 29.91 1013 10 16 0.00 0.00
4:53 am 04:53 Clear 38 3.3 31 -0.6 76 76 SSW 3 6 29.92 1013 10 16 0.00 0.00
5:53 am 05:53 Clear 37 2.8 31 -0.6 79 79 S 3 6 29.92 1013 10 16 0.00 0.00
6:53 am 06:53 Clear 37 2.8 32 0 82 82 Calm 29.90 1013 10 16 0.00 0.00
7:53 am 07:53 Sunny 40 4.4 34 1.1 79 79 Calm 29.91 1013 10 16 0.00 0.00
8:53 am 08:53 Sunny 43 6.1 35 1.7 74 74 SE 3 6 29.91 1013 10 16 0.00 0.00
9:53 am 09:53 Mostly Cloudy 46 7.8 37 2.8 71 71 S 6 9 29.91 1013 10 16 0.00 0.00
10:53 am 10:53 Mostly Cloudy 50 10 39 3.9 66 66 SSE 6 9 29.90 1013 10 16 0.00 0.00
11:53 am 11:53 Mostly Cloudy 53 11.7 41 5 64 64 S 5 7 29.88 1012 10 16 0.00 0.00
12:53 pm 12:53 Sunny 57 13.9 41 5 55 55 Calm 29.84 1011 10 16 0.00 0.00
1:53 pm 13:53 Cloudy 59 15 43 6.1 56 56 S 7 11 29.83 1010 10 16 0.00 0.00
2:53 pm 14:53 Cloudy 59 15 42 5.6 54 54 SSE 5 7 29.81 1010 10 16 0.00 0.00
3:53 pm 15:53 Cloudy 60 15.6 39 3.9 46 46 W 6 9 29.80 1009 10 16 0.00 0.00
4:53 pm 16:53 Cloudy 59 15 41 5 51 51 WSW 3 6 29.78 1009 10 16 0.00 0.00
5:53 pm 17:53 Cloudy 59 15 39 3.9 48 48 VRB 5 7 29.79 1009 10 16 0.00 0.00
6:53 pm 18:53 Cloudy 58 14.4 41 5 53 53 SW 5 7 29.78 1008 10 16 0.00 0.00
7:53 pm 19:53 Mostly Cloudy 58 14.4 40 4.4 51 51 N 5 7 29.76 1008 10 16 0.00 0.00
8:53 pm 20:53 Mostly Cloudy 54 12.2 43 6.1 67 67 Calm 29.77 1008 10 16 0.00 0.00
9:53 pm 21:53 Cloudy 53 11.7 43 6.1 69 69 Calm 29.75 1008 10 16 0.00 0.00
10:53 pm 22:53 Clear 50 10 42 5.6 74 74 Calm 29.75 1007 10 16 0.00 0.00
11:53 pm 23:53 Cloudy 50 10 41 5 71 71 Calm 29.75 1007 10 16 0.00 0.00

Powered by AerisWeather